Flag for U.S.A. Weather past 2 weeks in Angels Camp, California, U.S.A.

Now
56 °F

Clear.


Feels Like: 56 °F
Forecast: 50 / 89 °F
Wind: 3 mph from Southwest

Location: Modesto City-County-Sham Field

Current Time: Oct 2, 2014 at 5:52:55 AM

Latest Report: Oct 2, 2014 at 4:53 AM


Visibility: 10 mi

Pressure: 29.96 "Hg

Humidity: 75%

Dew point: 48 °F

Location of Angels CampLocation

Historic Weather in Angels Camp — Graph

°F

Angels Camp temperature yesterday

Maximum temperature yesterday: 84 °F (at 3:53 PM)
Minimum temperature yesterday: 62 °F (at 6:53 AM)
Average temperature yesterday: 71 °F

Past Weeks' High & Low Weather Summary

 TemperatureHumidityPressure
High92 °F (Sep 17, 3:53 PM)93% (Sep 25, 8:53 AM)30.03 "Hg (Sep 25, 8:53 AM)
Low54 °F (Sep 27, 5:53 AM)17% (Oct 1, 4:53 PM)29.67 "Hg (Sep 17, 5:53 PM)
Average71 °F58%29.88 "Hg
* Reported Sep 17 3:53 AM — Oct 2 3:53 AM, Angels Camp, Weather by CustomWeather, © 2014

Note: Actual official high and low records may vary slightly from our data, if they occured in-between our weather recording intervals... More about our weather records

Advertising

Angels Camp weather history for previous 24 hours

 ConditionsComfort  
Time TempWeatherWind HumidityBarometerVisibility
3:53 AM
Oct 2
56 °FClear.No wind67%29.94 "Hg10 mi
2:53 AM60 °FClear.No wind53%29.94 "Hg10 mi
1:53 AM63 °FClear.6 mph43%29.93 "Hg10 mi
12:53 AM64 °FClear.5 mph41%29.92 "Hg10 mi
11:53 PM
Oct 1
66 °FClear.3 mph39%29.91 "Hg10 mi
10:53 PM67 °FClear.No wind41%29.91 "Hg10 mi
9:53 PM69 °FClear.3 mph39%29.90 "Hg10 mi
8:53 PM70 °FClear.No wind37%29.89 "Hg10 mi
7:53 PM72 °FClear.8 mph34%29.87 "Hg10 mi
6:53 PM77 °FSunny.6 mph26%29.86 "Hg10 mi
5:53 PM82 °FSunny.9 mph18%29.85 "Hg10 mi
4:53 PM83 °FSunny.9 mph17%29.85 "Hg10 mi
3:53 PM84 °FSunny.10 mph18%29.84 "Hg10 mi
2:53 PM83 °FSunny.9 mph20%29.85 "Hg10 mi
1:53 PM81 °FSunny.13 mph22%29.86 "Hg10 mi
12:53 PM79 °FSunny.10 mph24%29.88 "Hg10 mi
11:53 AM75 °FSunny.13 mph28%29.89 "Hg10 mi
10:53 AM73 °FSunny.14 mph32%29.91 "Hg10 mi
9:53 AM69 °FSunny.13 mph36%29.90 "Hg10 mi
8:53 AM65 °FMild.16 mph44%29.89 "Hg10 mi
7:53 AM62 °FClear.15 mph48%29.88 "Hg10 mi
6:53 AM62 °FClear.N/A48%29.85 "Hg10 mi
5:53 AM63 °FClear.15 mph45%29.83 "Hg10 mi
Weather by CustomWeather, © 2014

See weather overviewHow to use our weather pages